Location: Niedergestelen
(46.3129°N, 7.7822°E)
Time: 06:09:27
(UTC+00:00)

CENTAUR R/B - Pass Details

Date: 01 December 2020
Orbit: 750 x 1438 km, 63.4° (Epoch: 11 January)

Event Time Altitude Azimuth Distance (km) Brightness Sun altitude
Rises 17:59:38 0° 196° (SSW) 3,357 5.6 -22.7°
Reaches altitude 10° 18:02:00 10° 191° (S) 2,497 4.9 -23.1°
Maximum altitude 18:07:32 48° 118° (ESE) 1,231 2.6 -24.0°
Enters shadow 18:07:44 48° 112° (ESE) 1,238 2.6 -24.1°
